Regional Weather Roundup
Issued by NWS Mt. Holly, NJ

Home | Current Version | Previous Version | Text Only | Print | Product List | Glossary On
Versions: 1 2 3 4 5 6 7 8 9 10 11 12 13 14 15 16 17 18 19 20 21 22 23 24 25 26 27
000
ASUS41 KPHI 252212
RWRPHI

REGIONAL WEATHER ROUNDUP
NATIONAL WEATHER SERVICE MOUNT HOLLY NJ
600 PM EDT SUN JUN 25 2017

NOTE:  "FAIR" INDICATES FEW OR NO CLOUDS BELOW 12,000 FEET WITH NO
SIGNIFICANT WEATHER AND/OR OBSTRUCTIONS TO VISIBILITY.

 * = STATION DOES NOT REPORT PRECIPITATION (E.G. RAIN, SNOW, ETC.)
        OR FOG.

NJZ015>026-252300-
SOUTHERN NEW JERSEY

CITY           SKY/WX    TMP DP  RH WIND       PRES   REMARKS
POMONA         NOT AVBL
WILDWOOD*      MOSUNNY   80  60  50 S10       29.96F
MILLVILLE      SUNNY     80  64  58 VRB3      29.94S
WRIGHTSTOWN    MOSUNNY   84  57  39 W13       29.92S
MOUNT HOLLY    PTSUNNY   80  56  43 VRB5      29.92S
TRENTON        MOSUNNY   83  55  38 W6        29.91F

$$
NJZ001>014-252300-
NORTHERN NEW JERSEY

CITY           SKY/WX    TMP DP  RH WIND       PRES   REMARKS
SUSSEX         SUNNY     80  55  42 VRB6      29.92S
ANDOVER*         N/A     80  54  40 VRB3      29.93S
MORRISTOWN     MOSUNNY   81  57  44 NW7       29.92S
NEWARK         PTSUNNY   81  60  48 NE7       29.91S
TETERBORO      MOSUNNY   80  58  46 S5        29.90S
CALDWELL       MOSUNNY   80  61  52 S5        29.92F
SOMERVILLE     SUNNY     81  58  45 W3        29.90S
ALLAIRE*       PTSUNNY   76  61  59 SE7       29.94S
TOMS RIVER*    MOSUNNY   80  60  50 S8        29.93S

$$
PAZ043-044-047-054-055-060>062-066>071-252300-
EASTERN PENNSYLVANIA

CITY           SKY/WX    TMP DP  RH WIND       PRES   REMARKS
PHILADELPHIA   PTSUNNY   84  56  38 W14G20    29.93F
NORTH PHILA    MOSUNNY   85  58  39 MISG      29.93F
BLUE BELL*     MOSUNNY   79  55  44 W7        29.94F
DOYLESTOWN     PTSUNNY   82  56  40 VRB7      29.93S
QUAKERTOWN*    PTSUNNY   81  55  41 W7        29.95S
PERKASIE*      FAIR      77  55  47 W7        29.95S
POTTSTOWN      SUNNY     80  54  40 VRB7      29.95F
LANCASTER      MOSUNNY   81  53  37 W20       29.95S
COATESVILLE    MOSUNNY   79  54  41 W10       29.97S
READING        MOSUNNY   81  56  42 W8        29.93S
ALLENTOWN      MOSUNNY   80  49  33 W14       29.93S
MOUNT POCONO   PTSUNNY   70  48  45 W9        29.99S
HAZLETON         N/A     77  48  36 CALM      30.01S
LEHIGHTON      FAIR      79  46  31 W6        29.95S
WILKES BARRE   SUNNY     79  47  32 SW14G21   29.93F

$$
DEZALL-MDZ008-012-015-019-020-252300-
DELAWARE AND EASTERN MARYLAND

CITY           SKY/WX    TMP DP  RH WIND       PRES   REMARKS
WILMINGTON     PTSUNNY   83  59  44 VRB7      29.94F
DOVER          MOSUNNY   83  62  48 SW8       29.94S
GEORGETOWN     MOSUNNY   84  58  40 W7        29.96F
EASTON         MOSUNNY   84  59  42 W5        30.00S
ABERDEEN       SUNNY     83  53  35 W12       29.96R
PATUXENT       CLOUDY    82  60  47 W9        29.97S
OCEAN CITY     MOSUNNY   75  65  70 S8        29.98S
WALLOPS ISLAND SUNNY     80  68  66 S13       29.98S
CAMBRIDGE      SUNNY     84  59  42 W6        29.96F
SALISBURY      MOSUNNY   83  58  42 W6        29.97S

$$
PAZ001-021-NYZ056-072-MDZ011-DCZ001-252300-
OTHER NEARBY LOCATIONS

CITY           SKY/WX    TMP DP  RH WIND       PRES   REMARKS
HARRISBURG     PTSUNNY   79  55  43 W9        29.94S
STATE COLLEGE  MOSUNNY   72  46  40 W17       29.99F
WILLIAMSPORT   MOSUNNY   77  46  33 W16G24    29.93S
BINGHAMTON     PTSUNNY   66  46  48 NW6       29.95F
NEW YORK CITY  PTSUNNY   78  60  53 CALM      29.95S
BALTIMORE      MOSUNNY   83  49  30 W15G22    29.96S
WASHINGTON DC  PTSUNNY   85  49  28 W15       29.97S

$$




USA.gov is the U.S. government's official web portal to all federal, state and local government web resources and services.